Location: Madison
(43.0730°N, 89.3819°W)
Time: 19:17:43
(UTC-06:00)

ISS - Pass Details

Date: 29 January 2019
Orbit: 403 x 411 km, 51.6° (Epoch: 22 February)

Event Time Altitude Azimuth Distance (km) Brightness Sun altitude
Rises 19:01:02 0° 292° (WNW) 2,336 1.1 -21.1°
Reaches altitude 10° 19:03:35 10° 312° (NW) 1,478 -0.4 -21.6°
Enters shadow 19:05:24 18° 344° (NNW) 1,107 -1.5 -21.9°
